Moose, Wyoming, United States (83012)
Lat: 43.66N, Lon: 110.72W
Wx Zone: WYZ013
Local Info
Past Weather Observations for Wednesday, October 22, 2014

NOTE: This archive is for the closest National Weather Service station to Moose. Information may differ from the station used for current weather conditions.

Click here for Long-term Archive

Time Weather Temperature Dewpoint Humidity Pressure Winds Precip Visibility
23:55
Mostly Cloudy
28°F / -2°C 27°F / -3°C 93% 30.21 in
(1023 mb)
N 6.9 mph
(N 11 kph)
- 10SM
23:35
Clear
28°F / -2°C 25°F / -4°C 86% 30.21 in
(1023 mb)
Calm - 10SM
23:15
Clear
28°F / -2°C 25°F / -4°C 86% 30.21 in
(1023 mb)
NNE 3.5 mph
(NNE 6 kph)
- 10SM
22:55
Clear
27°F / -3°C 25°F / -4°C 93% 30.21 in
(1023 mb)
N 6.9 mph
(N 11 kph)
- 10SM
22:35
Clear
28°F / -2°C 23°F / -5°C 80% 30.21 in
(1023 mb)
N 6.9 mph
(N 11 kph)
- 10SM
22:15
Clear
28°F / -2°C 23°F / -5°C 80% 30.21 in
(1023 mb)
Calm - 10SM
21:55
Clear
32°F / 0°C 25°F / -4°C 75% 30.21 in
(1023 mb)
Calm - 10SM
21:35
Clear
30°F / -1°C 25°F / -4°C 80% 30.21 in
(1023 mb)
Calm - 10SM
21:15
Clear
39°F / 4°C 21°F / -6°C 48% 30.21 in
(1023 mb)
SW 5.8 mph
(SW 9 kph)
- 10SM
20:55
Clear
39°F / 4°C 21°F / -6°C 48% 30.21 in
(1023 mb)
SW 3.5 mph
(SW 6 kph)
- 10SM
20:35
Clear
39°F / 4°C 21°F / -6°C 48% 30.21 in
(1023 mb)
Calm - 10SM
20:15
Clear
41°F / 5°C 21°F / -6°C 45% 30.21 in
(1023 mb)
S 3.5 mph
(S 6 kph)
- 10SM
19:55
Clear
39°F / 4°C 21°F / -6°C 48% 30.21 in
(1023 mb)
SSE 3.5 mph
(SSE 6 kph)
- 10SM
19:35
Clear
39°F / 4°C 21°F / -6°C 48% 30.21 in
(1023 mb)
S 4.6 mph
(S 7 kph)
- 10SM
18:51
Clear
39°F / 4°C 23°F / -5°C 52% 30.21 in
(1023 mb)
Calm - 10SM
17:51
Clear
43°F / 6°C 25°F / -4°C 49% 30.18 in
(1022 mb)
Calm - 10SM
16:51
Clear
48°F / 9°C 23°F / -5°C 37% 30.18 in
(1022 mb)
Calm - 10SM
15:51
Clear
52°F / 11°C 21°F / -6°C 30% 30.18 in
(1022 mb)
SW 9.2 mph
(SW 15 kph)
- 10SM
14:51
Clear
52°F / 11°C 21°F / -6°C 30% 30.18 in
(1022 mb)
SW 11.5 mph
(SW 19 kph)
- 10SM
13:53
Clear
52°F / 11°C 21°F / -6°C 30% 30.15 in
(1021 mb)
Calm - 10SM
11:03
Clear
46°F / 8°C 27°F / -3°C 46% 30.21 in
(1023 mb)
S 10.4 mph
(S 17 kph)
- 10SM
09:51
Clear
43°F / 6°C 30°F / -1°C 61% 30.21 in
(1023 mb)
S 9.2 mph
(S 15 kph)
- 10SM
08:51
Clear
37°F / 3°C 30°F / -1°C 75% 30.21 in
(1023 mb)
S 4.6 mph
(S 7 kph)
- 10SM
07:55
Clear
32°F / 0°C 30°F / -1°C 93% 30.21 in
(1023 mb)
Calm - 10SM
06:55
Clear
28°F / -2°C 28°F / -2°C 100% 30.18 in
(1022 mb)
Calm - 10SM
05:51
Clear
28°F / -2°C 27°F / -3°C 93% 30.15 in
(1021 mb)
SE 5.8 mph
(SE 9 kph)
- 10SM
05:35
Clear
28°F / -2°C 28°F / -2°C 100% 30.15 in
(1021 mb)
SE 4.6 mph
(SE 7 kph)
- 10SM
05:15
Clear
30°F / -1°C 30°F / -1°C 100% 30.15 in
(1021 mb)
ESE 3.5 mph
(ESE 6 kph)
- 10SM
04:55
Clear
30°F / -1°C 28°F / -2°C 93% 30.15 in
(1021 mb)
Calm - 10SM
04:35
Clear
34°F / 1°C 30°F / -1°C 87% 30.15 in
(1021 mb)
SW 3.5 mph
(SW 6 kph)
- 10SM
04:15
Clear
32°F / 0°C 30°F / -1°C 93% 30.15 in
(1021 mb)
Calm - 10SM
03:55
Clear
34°F / 1°C 30°F / -1°C 87% 30.15 in
(1021 mb)
SSW 3.5 mph
(SSW 6 kph)
- 10SM
03:35
Partly Cloudy
34°F / 1°C 30°F / -1°C 87% 30.12 in
(1020 mb)
Calm - 10SM
03:15
Mostly Cloudy
34°F / 1°C 30°F / -1°C 87% 30.12 in
(1020 mb)
E 3.5 mph
(E 6 kph)
- 10SM
02:55
Mostly Cloudy
34°F / 1°C 30°F / -1°C 87% 30.12 in
(1020 mb)
Calm - 10SM
02:35
Partly Cloudy
34°F / 1°C 30°F / -1°C 87% 30.12 in
(1020 mb)
S 5.8 mph
(S 9 kph)
- 10SM
02:15
Partly Cloudy
36°F / 2°C 30°F / -1°C 81% 30.12 in
(1020 mb)
Calm - 10SM
01:55
Overcast
36°F / 2°C 32°F / 0°C 87% 30.12 in
(1020 mb)
Calm - 10SM
01:35
Overcast
36°F / 2°C 32°F / 0°C 87% 30.12 in
(1020 mb)
N 5.8 mph
(N 9 kph)
- 10SM
01:15
Overcast
37°F / 3°C 30°F / -1°C 75% 30.12 in
(1020 mb)
Calm - 10SM
00:55
Overcast
37°F / 3°C 30°F / -1°C 75% 30.12 in
(1020 mb)
SE 3.5 mph
(SE 6 kph)
- 10SM
00:35
Overcast
36°F / 2°C 30°F / -1°C 81% 30.12 in
(1020 mb)
SSE 5.8 mph
(SSE 9 kph)
- 10SM
00:15
Overcast
36°F / 2°C 30°F / -1°C 81% 30.12 in
(1020 mb)
Calm - 10SM
Time Weather Temperature Dewpoint Humidity Pressure Winds Precip Visibility


Weather for websites

WeatherForYou.com, LLC is not responsible for any damages or problems caused by this service. Current weather conditions are obtained from the closest station including government and personal stations which may have varying degrees of accuracy. Weather forecasts are derived from the NOAA NDFD. Like all things, this site belongs to Jesus Christ... He just trusts me to maintain it. If you have any questions or comments email webmaster@weatherforyou.com

Copyright © 2014, WeatherForYou.com LLC. All rights reserved.